STARLINK-4042 (52661 NORAD) Tracking and Keplerian Element Data

This shows tracking and keplerian element data for the satellite.

Feedback or suggestion? Click here.




ElementValue
Catalog52661
NameSTARLINK-4042
Epoch Orbit928
Epoch Day193.25001157
Epoch Year2022
RAAN33.8534
Inclination53.2174
Eccentricity0.0001265
Argument of Perigee69.3089
Mean Anonmoly324.5214
Mean Motion15.18355347
Decay Rate-0.00725342
L11 52661U 22053F 22193.25001157 -.00725342 00000+0 -37449-1 0 9992
L22 52661 53.2174 33.8534 0001265 69.3089 324.5214 15.18355347 9281

Live tracking and technical data element details for STARLINK-4042 (NORAD 52661). STARLINK-4042 can be tracked NOW for your location showing map with azimuth and elevation plus other details from your city location.

Track the satellite on the map from your city or location and see movement details for azimuth, elevation, latitude, longitude, range, height, and movement on the map or in text.







IsCatalogInMostPopularTable: catalog: 52661, numindb: 4
Update: records affected: 1



GetName: 52661 STARLINK-4042

Hit Count: updated at: Sun, 14 Aug 2022 01:33:13 GMT